Weather History for Kemmerer, WY

Change the Weather History Date:

Monday, March 24, 2014

  Actual Average Record
Temperature  
Mean Temperature 37 °F -  
Max Temperature 44 °F 44 °F 60 °F (1956)
Min Temperature 30 °F 17 °F 2 °F (1973)
Degree Days  
Heating Degree Days 28    
Moisture  
Dew Point 18 °F    
Average Humidity 47    
Maximum Humidity 64    
Minimum Humidity 33    
Precipitation  
Precipitation 0.00 in - - ()
Sea Level Pressure  
Sea Level Pressure 30.22 in    
Wind  
Wind Speed 15 mph (West)    
Max Wind Speed 26 mph    
Max Gust Speed 34 mph    
Visibility 10 miles    
Events      
Averages and records for this station are not official NWS values.
T = Trace of Precipitation, MM = Missing Value Source: NWS Daily Summary

Daily Weather History Graph

Daily Weather History Graph

Search for Another Location

Airport:

Trip Planner

Search our weather history database for the weather conditions in past years. The results will help you decide how hot, cold, wet, or windy it might be!

Date:

Astronomy

Mar. 24, 2014 Rise Set
Actual Time 7:18 AM MDT 7:38 PM MDT
Civil Twilight 6:50 AM MDT 8:06 PM MDT
Nautical Twilight 6:18 AM MDT 8:39 PM MDT
Astronomical Twilight 5:44 AM MDT 9:13 PM MDT
Moon 2:56 AM MDT (3/24) 1:03 PM MDT (3/24)
Length of Visible Light 13h 16m
Length of Day
12h 20m
Last Quarter, 42% of the Moon is Illuminated
Mar 24
Last Quarter
Mar 30
New
Apr 7
First Quarter
Apr 15
Full
Apr 22
Last Quarter

Hourly Weather History & Observations

Time (MDT) Temp. Windchill Dew Point Humidity Pressure Visibility Wind Dir Wind Speed Gust Speed Precip Events Conditions
12:50 AM 30.2 °F 16.8 °F 14.0 °F 51% 30.09 in 10.0 mi West 23.0 mph - N/A   Clear
2:10 AM 30.2 °F 15.9 °F 14.0 °F 51% 30.09 in 10.0 mi West 26.5 mph 34.5 mph N/A   Clear
3:10 AM 30.2 °F 17.1 °F 14.0 °F 51% 30.11 in 10.0 mi West 21.9 mph 28.8 mph N/A   Clear
9:35 AM 32.0 °F 25.6 °F 15.8 °F 51% 30.23 in 10.0 mi West 6.9 mph - N/A   Clear
9:55 AM 32.0 °F 23.6 °F 15.8 °F 51% 30.24 in 10.0 mi West 10.4 mph - N/A   Clear
10:15 AM 33.8 °F 25.8 °F 15.8 °F 48% 30.24 in 10.0 mi West 10.4 mph - N/A   Clear
10:30 AM 33.8 °F 25.8 °F 14.0 °F 44% 30.24 in 10.0 mi West 10.4 mph - N/A   Clear
10:55 AM 35.6 °F 27.5 °F 14.0 °F 41% 30.25 in 10.0 mi West 11.5 mph - N/A   Clear
11:15 AM 37.4 °F 29.3 °F 14.0 °F 38% 30.25 in 10.0 mi West 12.7 mph - N/A   Clear
11:35 AM 37.4 °F 29.8 °F 14.0 °F 38% 30.25 in 10.0 mi WNW 11.5 mph - N/A   Clear
11:55 AM 37.4 °F 29.8 °F 15.8 °F 41% 30.25 in 10.0 mi West 11.5 mph - N/A   Clear
12:15 PM 39.2 °F 31.6 °F 14.0 °F 36% 30.25 in 10.0 mi West 12.7 mph - N/A   Clear
12:35 PM 41.0 °F 33.5 °F 14.0 °F 33% 30.24 in 10.0 mi West 13.8 mph - N/A   Clear
12:55 PM 41.0 °F 32.5 °F 14.0 °F 33% 30.24 in 10.0 mi West 17.3 mph 20.7 mph N/A   Clear
1:15 PM 41.0 °F 32.5 °F 14.0 °F 33% 30.24 in 10.0 mi West 17.3 mph 21.9 mph N/A   Clear
1:35 PM 42.8 °F 35.8 °F 17.6 °F 36% 30.24 in 10.0 mi WNW 13.8 mph 20.7 mph N/A   Clear
1:55 PM 42.8 °F 35.8 °F 17.6 °F 36% 30.24 in 10.0 mi West 13.8 mph 19.6 mph N/A   Clear
2:15 PM 42.8 °F 35.4 °F 17.6 °F 36% 30.24 in 10.0 mi NW 15.0 mph - N/A   Clear
2:35 PM 44.6 °F 37.8 °F 19.4 °F 37% 30.23 in 10.0 mi WNW 15.0 mph - N/A   Clear
2:55 PM 42.8 °F 36.2 °F 21.2 °F 42% 30.22 in 10.0 mi NW 12.7 mph - N/A   Clear
3:15 PM 42.8 °F 35.8 °F 21.2 °F 42% 30.22 in 10.0 mi NW 13.8 mph - N/A   Clear
3:35 PM 44.6 °F 37.8 °F 21.2 °F 39% 30.22 in 10.0 mi WNW 15.0 mph 20.7 mph N/A   Clear
3:55 PM 44.6 °F 38.4 °F 21.2 °F 39% 30.22 in 10.0 mi NW 12.7 mph 17.3 mph N/A   Clear
4:15 PM 42.8 °F 36.2 °F 21.2 °F 42% 30.22 in 10.0 mi NW 12.7 mph - N/A   Clear
4:35 PM 44.6 °F 37.8 °F 21.2 °F 39% 30.22 in 10.0 mi WNW 15.0 mph 21.9 mph N/A   Clear
4:55 PM 42.8 °F 35.1 °F 19.4 °F 39% 30.22 in 10.0 mi West 16.1 mph 20.7 mph N/A   Clear
5:15 PM 42.8 °F 34.3 °F 19.4 °F 39% 30.22 in 10.0 mi WNW 19.6 mph 25.3 mph N/A   Clear
5:35 PM 42.8 °F 34.3 °F 19.4 °F 39% 30.22 in 10.0 mi WNW 19.6 mph - N/A   Clear
5:55 PM 42.8 °F 35.4 °F 19.4 °F 39% 30.22 in 10.0 mi WNW 15.0 mph - N/A   Clear
6:15 PM 42.8 °F 34.5 °F 19.4 °F 39% 30.22 in 10.0 mi WNW 18.4 mph - N/A   Clear
6:35 PM 41.0 °F 32.8 °F 21.2 °F 45% 30.22 in 10.0 mi West 16.1 mph - N/A   Clear
6:55 PM 39.2 °F 30.8 °F 21.2 °F 49% 30.20 in 10.0 mi West 15.0 mph - N/A   Clear
7:15 PM 37.4 °F 31.4 °F 21.2 °F 52% 30.21 in 10.0 mi West 8.1 mph - N/A   Clear
7:35 PM 37.4 °F 32.1 °F 21.2 °F 52% 30.21 in 10.0 mi SW 6.9 mph - N/A   Clear
7:55 PM 35.6 °F 27.5 °F 21.2 °F 56% 30.20 in 10.0 mi WSW 11.5 mph 16.1 mph N/A   Clear
8:15 PM 35.6 °F 27.5 °F 21.2 °F 56% 30.20 in 10.0 mi West 11.5 mph - N/A   Clear
8:35 PM 33.8 °F 26.4 °F 21.2 °F 60% 30.21 in 10.0 mi West 9.2 mph - N/A   Clear
8:55 PM 33.8 °F 25.8 °F 21.2 °F 60% 30.22 in 10.0 mi West 10.4 mph - N/A   Clear
9:15 PM 32.0 °F 23.0 °F 21.2 °F 64% 30.22 in 10.0 mi West 11.5 mph - N/A   Clear
9:35 PM 32.0 °F 22.1 °F 21.2 °F 64% 30.22 in 10.0 mi West 13.8 mph - N/A   Clear
10:00 PM 32.0 °F 23.6 °F 21.2 °F 64% 30.22 in 10.0 mi West 10.4 mph - N/A   Clear
10:15 PM 32.0 °F 24.2 °F 21.2 °F 64% 30.22 in 10.0 mi WSW 9.2 mph - N/A   Clear
10:35 PM 32.0 °F 23.0 °F 21.2 °F 64% 30.22 in 10.0 mi West 11.5 mph - N/A   Clear
10:50 PM 32.0 °F 24.2 °F 21.2 °F 64% 30.22 in 10.0 mi West 9.2 mph - N/A   Clear
11:10 PM 32.0 °F 23.6 °F 19.4 °F 60% 30.21 in 10.0 mi WSW 10.4 mph - N/A   Clear
11:55 PM 30.2 °F 22.6 °F 19.4 °F 64% 30.22 in 10.0 mi WSW 8.1 mph - N/A   Clear